Opa Locka, FL

11:36 PM EDT on April 21, 2018 (GMT -0400)
Opa Locka

Weather History for KOPF - October, 2012

Change the Weather History Date:

Monday, October 8, 2012

  Actual Average Record
Temperature  
Mean Temperature 81 °F -  
Max Temperature 87 °F 86 °F 92 °F (1978)
Min Temperature 75 °F 72 °F 61 °F (1961)
Cooling Degree Days 16    
Growing Degree Days 31 (Base 50)    
Moisture  
Dew Point 75 °F    
Average Humidity 86    
Maximum Humidity 100    
Minimum Humidity 65    
Precipitation  
Precipitation 0.30 in - - ()
Sea Level Pressure  
Sea Level Pressure 29.97 in    
Wind  
Wind Speed 3 mph (East)    
Max Wind Speed 12 mph    
Max Gust Speed -    
Visibility 10 miles    
Events Rain    
Averages and records for this station are not official NWS values.
T = Trace of Precipitation, MM = Missing Value Source: NWS Daily Summary

Daily Weather History Graph

Daily Weather History Graph

Search for Another Location

Airport or City:

Astronomy

Oct. 08, 2012 Rise Set
Actual Time 7:16 AM EDT 6:59 PM EDT
Civil Twilight 6:53 AM EDT 7:22 PM EDT
Nautical Twilight 6:26 AM EDT 7:49 PM EDT
Astronomical Twilight 6:00 AM EDT 8:16 PM EDT
Moon 12:32 AM EDT (10/8) 2:12 PM EDT (10/8)
Length of Visible Light 12h 29m
Length of Day
11h 43m
Waning Gibbous, 46% of the Moon is Illuminated
Oct 8
Waning Gibbous
Oct 15
New
Oct 21
First Quarter
Oct 29
Full
Nov 6
Last Quarter

Hourly Weather History & Observations

Time (EDT) Temp. Heat Index Dew Point Humidity Pressure Visibility Wind Dir Wind Speed Gust Speed Precip Events Conditions
12:53 AM 77.0 °F - 75.9 °F 96% 29.95 in 10.0 mi Calm Calm - N/A   Scattered Clouds
1:53 AM 77.0 °F - 75.9 °F 96% 29.95 in 10.0 mi Calm Calm - N/A   Clear
2:53 AM 75.9 °F - 75.9 °F 100% 29.93 in 10.0 mi Calm Calm - N/A   Clear
3:53 AM 75.0 °F - 75.0 °F 100% 29.94 in 10.0 mi Calm Calm - N/A   Clear
4:53 AM 75.9 °F - 75.0 °F 97% 29.94 in 10.0 mi NNW 4.6 mph - N/A   Clear
5:53 AM 75.9 °F - 75.0 °F 97% 29.95 in 10.0 mi North 3.5 mph - N/A   Clear
6:53 AM 77.0 °F - 75.0 °F 94% 29.97 in 10.0 mi Calm Calm - 0.00 in   Clear
7:53 AM 77.0 °F - 75.9 °F 96% 29.99 in 10.0 mi ESE 5.8 mph - N/A   Overcast
8:01 AM 77.0 °F - 75.2 °F 94% 29.99 in 10.0 mi SE 11.5 mph - 0.00 in Rain Light Rain
8:11 AM 75.2 °F - 73.4 °F 94% 30.01 in 6.0 mi SE 11.5 mph - 0.07 in Rain Light Rain
8:53 AM 75.0 °F - 73.9 °F 96% 30.01 in 10.0 mi NNE 5.8 mph - 0.20 in   Partly Cloudy
9:53 AM 77.0 °F - 73.9 °F 90% 30.02 in 10.0 mi NE 5.8 mph - 0.01 in Rain Light Rain
10:53 AM 78.1 °F - 73.9 °F 87% 30.03 in 10.0 mi SSE 3.5 mph - 0.00 in   Clear
11:53 AM 77.0 °F - 75.0 °F 94% 30.03 in 5.0 mi Calm Calm - 0.07 in Rain Rain
12:53 PM 80.1 °F 85.4 °F 75.9 °F 87% 30.00 in 10.0 mi Calm Calm - 0.02 in   Clear
1:53 PM 84.0 °F 93.7 °F 77.0 °F 79% 29.97 in 10.0 mi Variable 6.9 mph - N/A   Clear
2:31 PM 84.2 °F 94.1 °F 77.0 °F 79% 29.95 in 10.0 mi NE 6.9 mph - N/A   Mostly Cloudy
2:53 PM 87.1 °F 96.3 °F 75.0 °F 67% 29.94 in 10.0 mi East 8.1 mph - N/A   Mostly Cloudy
3:02 PM 86.0 °F 93.4 °F 73.4 °F 66% 29.94 in 10.0 mi East 6.9 mph - N/A   Mostly Cloudy
3:53 PM 87.1 °F 95.4 °F 73.9 °F 65% 29.93 in 10.0 mi East 5.8 mph - N/A   Scattered Clouds
4:53 PM 86.0 °F 93.8 °F 73.9 °F 67% 29.93 in 10.0 mi East 10.4 mph - N/A   Partly Cloudy
5:53 PM 82.0 °F 87.9 °F 73.9 °F 76% 29.94 in 10.0 mi ESE 9.2 mph - N/A   Scattered Clouds
6:53 PM 80.1 °F 85.1 °F 75.0 °F 85% 29.95 in 10.0 mi East 3.5 mph - N/A   Clear
7:53 PM 81.0 °F 86.7 °F 75.0 °F 82% 29.97 in 10.0 mi Calm Calm - N/A   Clear
8:53 PM 81.0 °F 87.3 °F 75.9 °F 85% 29.98 in 10.0 mi East 4.6 mph - 0.00 in Rain Light Rain
9:53 PM 80.1 °F 85.1 °F 75.0 °F 85% 30.00 in 10.0 mi ENE 3.5 mph - 0.00 in   Clear
10:53 PM 81.0 °F 86.2 °F 73.9 °F 79% 30.01 in 10.0 mi Calm Calm - N/A   Clear
11:53 PM 79.0 °F - 75.0 °F 88% 30.01 in 10.0 mi Calm Calm - N/A   Clear